Current Version              Previous Version:    01  02  03  04  05  06  07  08  09  10  11  12  13  14  15  16  17  18  19  20  21  22  23  24  25  26  27  28  29  30  
   31  32  33  34  35  36  37  38  39  40  41  42  43  44  45  46  47  48  49  50  51  52  53  54  55  56  57  58  59  60  

[Printable]
192
ASUS44 KFWD 222001
RWRTX
NORTH TEXAS HOURLY WEATHER ROUNDUP
NATIONAL WEATHER SERVICE FORT WORTH TX
300 PM CDT TUE JUL 22 2014

NOTE: "FAIR" INDICATES FEW OR NO CLOUDS BELOW 12,000 FEET WITH NO
SIGNIFICANT WEATHER AND/OR OBSTRUCTIONS TO VISIBILITY.

TXZ118-119-222100-
DALLAS/FORT WORTH METROPLEX

CITY           SKY/WX    TMP DP  RH WIND       PRES   REMARKS
DFW AIRPORT    MOSUNNY   96  69  41 NE8       30.03F HX 102
DALLAS LOVE    PTSUNNY   96  69  41 VRB3      30.03F HX 102
FTW MEACHAM    MOSUNNY   97  69  40 VRB6      30.03F HX 103
DAL-EXECUTIVE  MOSUNNY   96  70  42 E9        30.04F HX 102
FTW-NAS-JRB    MOSUNNY   98  64  32 S6        30.07F HX 100
FTW-SPINKS     MOSUNNY   97  66  36 SE7       30.05F HX 100
ARLINGTON      SUNNY     95  66  38 E7        30.03F HX  98
GRAND PRAIRIE  SUNNY     95  66  38 E5        30.05F HX  98
ADDISON        MOSUNNY   95  70  43 NE6       30.05F HX 101
MESQUITE       PTSUNNY   93  70  46 SE5       30.04F HX  99
LANCASTER      SUNNY     95  64  34 E5        30.05S HX  97
$$

TXZ091>094-102>105-117-120-121-131>134-222100-
NORTH CENTRAL TEXAS

CITY           SKY/WX    TMP DP  RH WIND       PRES   REMARKS
SHRMAN/DENISON MOSUNNY   93  70  48 NE7       30.08S HX  99
GAINESVILLE    MOSUNNY   92  72  50 NE6       30.08F HX  99
BRIDGEPORT     SUNNY     93  67  41 SE7       30.07F HX  96
DECATUR        SUNNY     92  70  48 E7        30.07F HX  98
DENTON         PTSUNNY   93  70  46 NE6       30.04F HX  99
MCKINNEY       PTSUNNY   92  73  53 VRB5      30.05F HX 100
ROCKWALL       MOSUNNY   93  73  51 NE9       30.04F HX 101
TERRELL        SUNNY     94  69  44 E7G16     30.05F HX  99
CLEBURNE       MOSUNNY   95  70  43 VRB5      30.06F HX 101
GRANBURY       SUNNY     98  64  32 E7        30.05F HX 100
$$

TXZ083>090-098>101-113>116-127>130-139>142-154-155-222100-
WESTERN NORTH TEXAS

CITY           SKY/WX    TMP DP  RH WIND       PRES   REMARKS
WICHITA FALLS  MOSUNNY   94  69  44 CALM      30.05F HX  99
WF-KICKAPOO    SUNNY     95  65  36 SE5       30.07S HX  97
VERNON         MOSUNNY   97  64  34 SE8       30.08S HX  99
ABILENE        SUNNY     94  67  41 VRB5      30.09F HX  97
BRECKENRIDGE   MOSUNNY   98  64  32 S5        30.05S HX  99
MINERAL WELLS  SUNNY     96  66  37 E9        30.04F HX  99
STEPHENVILLE   MOSUNNY   92  65  41 CALM      30.09F HX  94
COMANCHE       SUNNY     94  64  37 SE5       30.08S HX  95
BROWNWOOD      SUNNY     93  68  43 SE6       30.07F HX  97
COLEMAN        MOSUNNY   92  65  40 CALM      30.09F HX  94
$$

TXZ143>147-156>162-174-175-222100-
CENTRAL TEXAS

CITY           SKY/WX    TMP DP  RH WIND       PRES   REMARKS
WACO           MOSUNNY   96  69  41 S9        30.02F HX 102
WACO-TSTC        N/A     95  68  41 CALM      30.02F HX  99
WACO-MCGREGOR  MOSUNNY   93  70  46 CALM      30.04S HX  99
HILLSBORO      SUNNY     97  66  35 E5        30.03F HX 100
CORSICANA      MOSUNNY   95  70  44 E9        30.05F HX 101
MEXIA          MOSUNNY   91  73  55 CALM      30.03F HX  98
CAMERON        SUNNY     94  73  51 S7        30.03F HX 103
TEMPLE         PTSUNNY   93  70  46 S5        30.05S HX  99
KILLEEN        PTSUNNY   93  68  43 E7        30.05F HX  97
KILLEEN-SKYLRK SUNNY     93  70  46 E8        30.04F HX  99
FORT HOOD      MOSUNNY   97  69  40 E8        30.05F HX 103
HAMILTON       SUNNY     93  65  39 E9        30.08S HX  95
LAMPASAS       MOSUNNY   95  71  44 CALM      30.06S HX 102
$$

TXZ095>097-106>112-122>126-135>138-148>153-164>167-222100-
EAST TEXAS

CITY           SKY/WX    TMP DP  RH WIND       PRES   REMARKS
PARIS          MOSUNNY   88  70  55 SE5       30.08F HX  92
SULPHUR SPRNGS MOSUNNY   90  70  52 N5        30.09S HX  95
CLARKSVILLE    SUNNY     90  68  49 NE5       30.07F HX  93
MOUNT PLEASANT MOSUNNY   89  67  48 CALM      30.08F HX  92
MINEOLA        PTSUNNY   90  72  55 N6        30.07F HX  96
TYLER          SUNNY     92  69  47 NE8       30.06F HX  97
LONGVIEW       PTSUNNY   89  69  51 E5        30.06F HX  93
MARSHALL       PTSUNNY   89  70  52 E5        30.09S HX  94
ATHENS         MOSUNNY   90  72  55 E6        30.04S HX  96
HENDERSON      MOSUNNY   88  67  50 NE3       30.07S HX  91
NACOGDOCHES    MOSUNNY   90  72  55 E3        30.05F HX  96
LUFKIN         MOSUNNY   93  75  55 NE7       30.04F HX 104
$$

SUPPLEMENTAL OBSERVATIONS (CENTRAL)

CITY           SKY/WX    TMP DP  RH WIND       PRES   REMARKS
$$

SUPPLEMENTAL OBSERVATIONS (WEST)

CITY           SKY/WX    TMP DP  RH WIND       PRES   REMARKS
$$

SUPPLEMENTAL OBSERVATIONS (EAST)

CITY           SKY/WX    TMP DP  RH WIND       PRES   REMARKS
$$

SUPPLEMENTAL OBSERVATIONS ARE A COLLECTION OF AUTOMATED INSTRUMENTS
THAT ARE MAINTAINED BY A VARIETY OF FEDERAL AND STATE AGENCIES.
CERTAIN ELEMENTS...SUCH AS HUMIDITY VALUES AND SUSTAINED WIND
SPEEDS...MAY BE APPROXIMATED.